Flag for Netherlands Weather past 2 weeks in Rotterdam, Netherlands

Now
77 °F

Warm.


Feels Like: 79 °F
Forecast: 61 / 69 °F
Wind: 12 mph from West

Location: Rotterdam Zestienhoven Airport

Current Time: Aug 3, 2015 at 3:23:32 PM

Latest Report: Aug 3, 2015 at 2:55 PM


Visibility: N/A

Pressure: 29.92 "Hg

Humidity: 61%

Dew point: 63 °F

Location of RotterdamLocation

Historic Weather in Rotterdam — Graph

°F

Rotterdam temperature yesterday

Maximum temperature yesterday: 77 °F (at 4:25 PM)
Minimum temperature yesterday: 52 °F (at 2:25 AM)
Average temperature yesterday: 66 °F

Past Weeks' High & Low Weather Summary

 TemperatureHumidityPressure
High81 °F (Aug 3, 12:25 PM)100% (Jul 20, 5:25 PM)30.15 "Hg (Jul 20, 5:25 PM)
Low45 °F (Jul 31, 4:55 AM)39% (Aug 2, 4:25 PM)29.42 "Hg (Jul 25, 6:25 AM)
Average63 °F74%29.87 "Hg
* Reported Jul 19 1:25 PM — Aug 3 1:55 PM, Rotterdam, Weather by CustomWeather, © 2015

Note: Actual official high and low records may vary slightly from our data, if they occured in-between our weather recording intervals... More about our weather records

Advertising

Rotterdam weather history for previous 24 hours

 ConditionsComfort  
Time TempWeatherWind HumidityBarometerVisibility
1:55 PM
Mon, Aug 3
75 °FClear.12 mph61%29.92 "HgN/A
1:25 PM75 °FClear.15 mph57%29.92 "HgN/A
12:55 PM77 °FClear.14 mph54%29.92 "HgN/A
12:25 PM81 °FWarm.14 mph48%29.92 "HgN/A
11:55 AM79 °FClear.12 mph48%29.92 "HgN/A
11:25 AM79 °FWarm.10 mph51%29.89 "HgN/A
10:55 AM77 °FWarm.10 mph51%29.89 "HgN/A
10:25 AM77 °FClear.12 mph51%29.89 "HgN/A
9:55 AM73 °FMild.12 mph57%29.89 "HgN/A
9:25 AM72 °FMild.10 mph57%29.89 "HgN/A
8:55 AM72 °FClear.12 mph57%29.89 "HgN/A
8:25 AM70 °FClear.9 mph57%29.89 "HgN/A
7:55 AM68 °FMild.6 mph64%29.89 "HgN/A
7:25 AM64 °FClear.3 mph68%29.89 "HgN/A
6:55 AM63 °FMild.3 mph73%29.89 "HgN/A
6:25 AM63 °FMild.5 mph68%29.89 "HgN/A
5:55 AM61 °FCool.5 mph72%29.92 "HgN/A
4:55 AM63 °FMild.7 mph64%29.92 "HgN/A
4:25 AM63 °FMild.6 mph64%29.92 "HgN/A
3:55 AM63 °FMild.7 mph64%29.95 "HgN/A
3:25 AM64 °FMild.7 mph64%29.95 "HgN/A
2:55 AM64 °FMild.8 mph64%29.95 "HgN/A
2:25 AM64 °FClear.8 mph64%29.98 "HgN/A
1:55 AM66 °FClear.8 mph60%29.98 "HgN/A
1:25 AM66 °FClear.9 mph60%29.98 "HgN/A
12:55 AM66 °FMild.9 mph60%30.01 "HgN/A
12:25 AM66 °FMild.12 mph64%30.01 "HgN/A
11:55 PM
Sun, Aug 2
66 °FClear.8 mph64%30.01 "HgN/A
11:25 PM68 °FClear.9 mph64%30.01 "HgN/A
10:55 PM68 °FMild.9 mph64%30.01 "HgN/A
10:25 PM70 °FMild.9 mph60%30.01 "HgN/A
9:55 PM70 °FMild.7 mph57%30.01 "HgN/A
9:25 PM70 °FClear.6 mph60%30.01 "HgN/A
8:55 PM70 °FClear.7 mph60%30.01 "HgN/A
8:25 PM73 °FMild.9 mph47%30.01 "HgN/A
7:55 PM73 °FClear.9 mph50%30.01 "HgN/A
7:25 PM75 °FClear.9 mph47%30.04 "HgN/A
6:55 PM75 °FMild.9 mph47%30.04 "HgN/A
6:25 PM75 °FClear.10 mph44%30.04 "HgN/A
5:55 PM77 °FClear.8 mph42%30.07 "HgN/A
5:25 PM77 °FClear.8 mph39%30.07 "HgN/A
4:55 PM77 °FClear.5 mph42%30.07 "HgN/A
4:25 PM77 °FClear.7 mph39%30.07 "HgN/A
3:55 PM75 °FClear.7 mph41%30.09 "HgN/A
3:25 PM75 °FClear.8 mph47%30.09 "HgN/A
Weather by CustomWeather, © 2015

See weather overviewHow to use our weather pages